Regional Weather Roundup
Issued by NWS

Home | Current Version | Previous Version | Graphics & Text | Print | Product List | Glossary On
Versions: 1 2 3 4 5 6 7 8 9 10 11 12 13 14 15 16 17 18 19 20 21 22 23 24 25 26 27 28 29 30 31 32 33 34 35 36 37 38 39 40 41 42 43 44 45 46 47 48 49 50
000
ASUS45 KTFX 230510
RWRMT
MONTANA REGIONAL WEATHER ROUNDUP
NATIONAL WEATHER SERVICE GREAT FALLS MT
1000 PM MST MON JAN 22 2018

NOTE: "FAIR" INDICATES FEW OR NO CLOUDS BELOW 12000 FEET WITH NO
SIGNIFICANT WEATHER AND/OR OBSTRUCTIONS TO VISIBILITY.

MTZ001>007-043-230600-
WEST OF THE DIVIDE

CITY           SKY/WX    TMP DP  RH WIND       PRES   REMARKS
KALISPELL      CLOUDY    32  30  92 S8        30.15R WCI  25
MISSOULA       FAIR      27  24  89 N3        30.21S
BUTTE          MOCLDY     9   5  84 CALM      30.14R
MULLAN PASS    CLOUDY    21  19  92 VRB6      30.11R WCI  13
ANACONDA         N/A     21  12  68 SW8       30.15S WCI  12
DEER LODGE       N/A     19  19 100 W7        30.17R WCI  10
EUREKA           N/A     32  23  69 MISG      30.15R
HAMILTON         N/A     30  28  93 SE10      30.22  WCI  21
PLAINS           N/A     31  27  85 NE1       30.20S VSB 0
RONAN            N/A     30  28  93 S7        30.21R WCI  23
$$

MTZ008-052>055-230600-
SOUTHWEST MONTANA

CITY           SKY/WX    TMP DP  RH WIND       PRES   REMARKS
BOZEMAN        FAIR      13  10  88 S6        30.17R FOG     WCI   4
DILLON         FAIR      16  14  92 S15       30.17R WCI   1
ENNIS          CLEAR     25  14  63 SE13      30.20S WCI  13
W YELLOWSTONE  FAIR      16  14  93 SW9       30.16R WCI   4
THREE FORKS      N/A     22  17  81 CALM      30.13
$$

MTZ009-010-012-014-046-048-049-054-230600-
EAST SLOPES AND CENTRAL MONTANA

CITY           SKY/WX    TMP DP  RH WIND       PRES   REMARKS
CUT BANK       FAIR      25  18  74 W7        30.02R WCI  17
GREAT FALLS    FAIR      25  16  68 S10       30.07S WCI  15
MALMSTROM AFB  MOCLDY    28  19  69 S10       30.09R WCI  19
HELENA         FAIR      29  18  63 E3        30.13R
AUGUSTA        FAIR      26  21  79 S17       30.04R WCI  14
BOWMANS CRNR   FAIR      25  16  68 S7        30.04R WCI  17
CHOTEAU          N/A     34  14  44 W9        30.06R WCI  26
FAIRFIELD      MOCLDY    31  16  53 SW9       30.05R WCI  23
POWER          MOCLDY    27  16  62 S12       30.05R WCI  17
RAYNESFORD     MOCLDY    33  15  48 SW10      30.08R WCI  24
ULM            MOCLDY    29  19  66 SW8       30.08R WCI  21
WHITE SULPHUR    N/A     25  18  74 S12G18    30.08S WCI  14
$$

MTZ011-013-016-021-045-047-050-051-230600-
NORTH CENTRAL MONTANA

CITY           SKY/WX    TMP DP  RH WIND       PRES   REMARKS
HAVRE          FAIR      30  23  75 SW17      30.03R WCI  18
LEWISTOWN      FAIR      23  16  74 SW13      30.05S WCI  11
N BAR RANCH    FAIR      28  12  50 W8        30.05F WCI  20
CHINOOK          N/A     28  21  74 W7        30.02S WCI  21
DENTON         MOCLDY    27  17  66 MISG      30.02S
GEYSER         CLOUDY    32  17  55 W21       30.03F WCI  20
GRASS RANGE    FAIR      28  17  61 W16       30.01F WCI  17
STANFORD       MOCLDY    31  15  51 W14       30.04S WCI  21
WINIFRED       FAIR      29  19  66 W9        30.03F WCI  20
$$

MTZ017>020-022>027-061-062-230600-
NORTHEAST MONTANA

CITY           SKY/WX    TMP DP  RH WIND       PRES   REMARKS
GLASGOW        FAIR      18  13  80 W7        29.99S WCI   9
GLENDIVE       FAIR      21  16  81 S3        30.03S
JORDAN           N/A     18  13  80 W6        30.03S WCI  10
MALTA          CLEAR     14  12  92 NE7       30.02R WCI   4
SIDNEY         FAIR      17  15  92 S8        30.00S WCI   7
WOLF POINT     FAIR      15  10  80 W9        30.02S WCI   3
PLENTYWOOD       N/A     25  18  74 CALM      29.94F
POPLAR           N/A     16  12  86 NW6       30.02R WCI   7
SCOBEY           N/A     20  10  65 CALM      29.95
$$

MTZ028>42-056>058-230600-
SOUTHCENTRAL AND SOUTHEAST MONTANA

CITY           SKY/WX    TMP DP  RH WIND       PRES   REMARKS
BAKER          CLOUDY    20  16  84 MISG      30.04R
BILLINGS       MOCLDY    29  18  63 W18       30.10R WCI  16
LIVINGSTON     FAIR      30  20  66 SW18      30.12S WCI  18
MILES CITY     CLOUDY    26  21  81 SW6       30.06S WCI  19
BIG TIMBER     CLEAR     30  21  69 W17G25    30.13R WCI  18
EKALAKA          N/A     29  18  63 W3        30.01
FORSYTH          N/A     34  23  64 SW3       30.06F
HARLOWTON      FAIR      28  17  64 NW16      30.08R WCI  16
LAUREL           N/A     27  18  69 SW10      30.13S WCI  17
ROUNDUP          N/A     27  14  57 MISG      29.98R
$$

REGIONAL REPORTS...DAKOTAS

CITY           SKY/WX    TMP DP  RH WIND       PRES   REMARKS
WILLISTON      FAIR      23  17  78 S6        29.98S WCI  16
MINOT          CLOUDY    17  14  88 SE9       29.98F WCI   6
DICKINSON      FAIR      26  20  77 W12       29.97R WCI  16
BEACH          FAIR      25  21  86 W16       30.03S WCI  12
CROSBY         FAIR      18  16  93 SW9       29.94R WCI   6
TIOGA          FAIR      19  19 100 W5        29.95F
WATFORD CITY   FAIR      21  18  86 SW5       29.98S
BISMARCK       FOG       23  20  88 S6        30.04S VSB 1/2 WCI  16
GRAND FORKS    CLOUDY    24  19  81 NE7       30.07S WCI  16
FARGO          CLOUDY    25  20  81 N12       30.03S WCI  14
BUFFALO SD       N/A     28  20  71 W7        29.97R WCI  21
RAPID CITY     FAIR      30  19  63 NW15      30.03R WCI  19
$$

REGIONAL REPORTS...WYOMING/IDAHO/WASHINGTON

CITY           SKY/WX    TMP DP  RH WIND       PRES   REMARKS
GILLETTE       CLOUDY    27  19  72 W12       30.07R WCI  17
SHERIDAN       CLOUDY    28  23  81 S3        30.10R
BUFFALO WY     CLOUDY    29  16  58 CALM      30.08R
CODY           FAIR      31  12  45 CALM      30.11R
YELLOWSTONE LA   N/A      7   5  91 CALM      30.14S
IDAHO FALLS    CLOUDY    28  27  96 SW6       30.26S WCI  22
SALMON         CLOUDY    24  22  91 CALM      30.27S
BOISE          FAIR      33  28  81 SE7       30.31S WCI  27
SPOKANE        FAIR      32  28  85 SW9       30.22S WCI  24
$$

REGIONAL REPORTS...ALBERTA

CITY           SKY/WX    TMP DP  RH WIND       PRES   REMARKS
CALGARY        PTCLDY    23  10  58 S3        29.95R
CARDSTON         N/A     27  16  63 SW6         N/A  WCI  20
EDMONTON       CLEAR     16  12  86 SW3       29.93S
FORT MCMURRAY  CLOUDY    10   7  85 E5        29.96S
HIGH LEVEL     FLURRIES   7   3  85 N2        29.98S
LETHBRIDGE     MOCLDY    32  21  64 W17       30.00R WCI  21
LLOYDMINSTER   CLOUDY    19  18  93 W9        29.91S FOG     WCI   9
MEDICINE HAT   CLEAR     28  21  74 S9        29.98R WCI  20
MILK RIVER       N/A     21  18  86 W7          N/A  WCI  13
PEACE RIVER    FOG       21  19  93 SE3       29.90S VSB 3/4
PINCHER CREEK  CLEAR     28  19  69 W15       30.01R WCI  17
WATERTON GATE    N/A     30  18  59 SW12        N/A  WCI  21
$$

REGIONAL REPORTS...SASKATCHEWAN

CITY           SKY/WX    TMP DP  RH WIND       PRES   REMARKS
CORONACH         N/A     19  16  86 W9          N/A  WCI   9
CYPRESS HILLS    N/A     28  12  50 W8          N/A  WCI  20
ESTEVAN        MOCLDY    14  10  85 S7        29.92S WCI   4
MOOSE JAW        N/A     23  19  86 W9          N/A  WCI  13
PRINCE ALBERT  FLURRIES   9   5  85 CALM      29.95R
REGINA         CLEAR     18  14  86 W12       29.90R WCI   5
ROCKGLEN         N/A     23  16  74 W14G20      N/A  WCI  11
SASKATOON      CLOUDY    19  18  93 W6        29.95R WCI  11
SWIFT CURRENT  CLEAR     25  19  80 W13       29.92S WCI  13
VAL MARIE        N/A     19  16  86 W14         N/A  WCI   6
$$



USA.gov is the U.S. government's official web portal to all federal, state and local government web resources and services.